Date,TemperatureHighF,TemperatureAvgF,TemperatureLowF,DewpointHighF,DewpointAvgF,DewpointLowF,HumidityHigh,HumidityAvg,HumidityLow,PressureMaxIn,PressureMinIn,WindSpeedMaxMPH,WindSpeedAvgMPH,GustSpeedMaxMPH,PrecipitationSumIn
2013-1-1,20.6,17.6,15.0,14.0,12.6,11.0,87,80,72,32.50,32.50,20,7,25,0.00
2013-1-2,20.2,15.6,13.0,14.0,11.2,10.0,90,83,72,32.50,32.50,6,2,9,0.00
2013-1-3,24.9,18.0,12.9,14.0,11.0,9.0,87,75,58,32.50,32.50,7,2,10,0.00
2013-1-4,31.2,24.9,16.8,25.0,16.1,9.0,85,70,52,32.50,32.46,11,4,14,0.00
2013-1-5,33.7,29.2,26.5,25.0,22.0,20.0,84,75,61,32.47,32.24,10,4,12,0.00
2013-1-6,31.6,28.1,24.3,24.0,18.1,-99.9,83,71,61,32.24,32.10,22,-16,26,0.00
2013-1-7,36.8,30.7,27.1,28.0,23.3,19.0,84,74,66,32.13,31.84,19,6,21,0.00
2013-1-8,37.9,33.7,31.2,31.0,24.4,19.0,81,69,60,32.13,31.85,32,11,41,0.01
2013-1-9,39.6,36.5,28.9,33.0,30.1,27.0,95,78,63,31.97,31.59,33,9,39,0.08
2013-1-10,28.9,23.2,12.7,27.0,21.0,7.0,95,91,79,31.93,31.64,25,14,34,0.08
2013-1-11,12.5,10.8,7.8,7.0,1.3,-99.9,87,75,74,32.47,31.94,18,-34,24,0.00
2013-1-12,13.8,7.9,4.0,8.0,4.4,1.0,89,85,77,32.50,32.48,10,3,13,0.00
2013-1-13,10.9,7.6,5.0,6.0,3.4,1.0,88,82,74,32.50,32.50,8,2,9,0.00
2013-1-14,16.2,10.7,4.9,13.0,6.4,1.0,87,82,76,32.50,32.50,11,3,18,0.00
2013-1-15,28.2,22.5,15.7,21.0,18.1,13.0,91,83,75,32.50,32.50,16,4,24,0.00
2013-1-16,39.6,32.0,25.3,22.0,19.1,17.0,78,60,44,32.50,32.50,10,3,17,0.00
2013-1-17,39.3,31.9,24.7,20.0,17.9,16.0,78,57,40,32.50,32.38,11,5,15,0.01
2013-1-18,45.7,37.4,30.3,17.0,9.8,-99.9,55,36,25,32.40,32.12,32,-21,37,0.00
2013-1-19,41.6,29.8,31.7,15.0,-10.0,-99.9,42,28,28,32.36,32.23,11,-188,16,0.00
2013-1-20,43.7,37.3,32.4,18.0,13.3,10.0,43,38,31,32.43,32.33,9,4,13,0.00
2013-1-21,46.5,37.2,30.6,19.0,14.0,10.0,52,40,27,32.34,32.17,15,4,17,0.00
2013-1-22,40.7,34.7,28.5,15.0,10.1,5.0,48,37,24,32.28,32.15,12,4,14,0.00
2013-1-23,43.6,37.3,33.0,30.0,15.3,10.0,68,42,29,32.19,31.92,15,8,21,0.00
2013-1-24,36.9,34.7,31.9,33.0,26.9,23.0,91,73,59,32.20,31.94,23,10,31,0.01
2013-1-25,38.5,35.7,32.0,33.0,28.6,24.0,94,76,65,32.20,31.90,16,6,18,0.03
2013-1-26,38.1,31.4,28.3,33.0,19.6,-99.9,93,77,73,31.91,31.78,29,-53,37,0.03
2013-1-27,30.1,26.4,23.4,22.0,19.2,17.0,86,74,61,32.00,31.88,21,6,24,0.00
2013-1-28,27.7,23.6,20.9,21.0,17.7,15.0,92,79,61,32.01,31.89,17,6,19,0.00
2013-1-29,25.7,22.9,21.6,23.0,20.2,19.0,93,89,81,32.27,31.91,20,6,27,0.01
2013-1-30,35.1,27.0,23.5,28.0,9.9,-99.9,94,71,68,32.22,32.12,44,-113,49,0.01
2013-1-31,36.4,31.6,33.9,30.0,15.0,-99.9,86,68,68,32.22,32.12,37,-94,46,0.00
2013-2-1,36.7,33.8,31.1,30.0,25.4,22.0,91,72,56,32.45,32.12,33,12,43,0.00
2013-2-2,40.4,32.3,27.3,25.0,16.1,-99.9,79,60,49,32.49,32.32,12,-48,15,0.00
2013-2-3,39.1,34.3,29.7,25.0,21.2,-99.9,69,61,51,32.31,32.05,22,-3,26,0.00
2013-2-4,37.1,28.4,33.5,28.0,1.7,-99.9,74,55,60,32.05,31.98,16,-185,28,0.00
2013-2-5,42.4,35.1,32.6,30.0,23.7,-99.9,85,68,49,32.00,31.75,32,-14,42,0.00
2013-2-6,33.3,30.0,27.4,30.0,25.1,20.0,95,82,60,32.13,31.90,14,5,23,0.04
2013-2-7,34.0,30.2,27.1,25.0,18.0,-99.9,81,65,51,32.13,31.94,13,-14,16,0.04
2013-2-8,32.7,29.1,25.8,26.0,24.2,22.0,92,82,66,32.08,32.01,21,6,23,0.00
2013-2-9,27.4,25.2,23.9,23.0,19.1,14.0,92,78,65,32.20,32.01,22,14,33,0.00
2013-2-10,29.7,25.2,22.6,21.0,17.7,11.0,90,74,50,32.35,32.22,23,9,26,0.00
2013-2-11,32.5,25.1,20.2,21.0,17.6,14.0,82,73,62,32.31,32.23,17,4,22,0.00
2013-2-12,32.4,20.8,26.9,27.0,-14.4,-99.9,91,54,74,32.33,32.19,14,-310,21,0.00
2013-2-13,35.7,33.4,30.4,28.0,26.1,21.0,83,74,60,32.29,32.10,33,14,42,0.01
2013-2-14,32.9,30.8,28.9,24.0,20.7,18.0,74,66,58,32.50,32.30,33,15,36,0.01
2013-2-15,40.9,27.0,30.6,28.0,-3.3,-99.9,77,54,59,32.50,32.35,19,-230,23,0.00
2013-2-16,43.2,35.9,30.1,31.0,26.6,23.0,93,70,54,32.34,31.80,25,8,35,0.00
2013-2-17,30.0,28.0,24.7,28.0,20.8,17.0,93,75,64,32.18,31.84,24,11,36,0.00
2013-2-18,34.1,28.5,23.4,22.0,17.1,11.0,89,64,43,32.18,31.86,13,6,16,0.00
2013-2-19,34.8,31.0,28.1,23.0,16.0,11.0,81,55,40,31.86,31.66,19,8,21,0.00
2013-2-20,29.5,26.7,24.1,22.0,18.7,12.0,87,72,57,32.02,31.80,19,10,29,0.00
2013-2-21,28.2,23.0,17.8,21.0,12.1,-99.9,84,68,55,32.17,32.03,18,-16,20,0.00
2013-2-22,33.7,29.0,23.9,26.0,21.5,19.0,85,74,57,32.11,31.68,22,9,25,0.00
2013-2-23,32.2,26.6,24.2,26.0,15.8,11.0,88,64,52,32.26,31.66,38,14,41,0.00
2013-2-24,30.2,25.8,22.8,18.0,14.7,-99.9,73,65,56,32.40,32.25,23,-3,35,0.00
2013-2-25,31.8,25.6,23.8,26.0,12.4,-99.9,88,67,56,32.24,31.97,14,-47,18,0.00
2013-2-26,28.2,25.3,23.6,21.0,14.8,-99.9,89,69,62,32.42,32.13,21,-12,28,0.00
2013-2-27,34.8,26.0,20.6,19.0,8.0,-99.9,76,57,46,32.43,32.35,22,-57,34,0.00
2013-2-28,37.0,31.3,26.2,31.0,25.4,16.0,91,79,53,32.43,32.35,11,3,15,0.01
2013-3-1,47.2,39.4,35.2,36.0,30.1,-99.9,85,75,63,32.45,32.34,16,-6,20,0.01
2013-3-2,49.1,41.8,37.2,35.0,30.2,28.0,90,65,45,32.33,31.84,21,7,23,0.13
2013-3-3,38.4,24.2,25.5,34.0,-3.8,-99.9,96,56,48,32.11,31.71,35,-200,47,0.01
2013-3-4,31.0,24.4,18.3,20.0,11.6,-99.9,91,62,42,32.45,32.13,19,-5,30,0.01
2013-3-5,37.4,29.5,21.4,18.0,13.9,11.0,69,53,41,32.30,31.95,13,7,18,0.00
2013-3-6,39.1,34.1,28.9,32.0,25.4,15.0,94,72,43,31.95,31.62,17,6,21,0.01
2013-3-7,38.1,29.7,28.4,29.0,12.6,-99.9,95,64,47,32.06,31.80,19,-79,21,0.00
2013-3-8,38.9,31.1,22.8,23.0,17.4,-99.9,80,60,36,32.08,31.95,18,-4,22,0.00
2013-3-9,38.7,32.2,27.9,22.0,20.2,18.0,70,62,50,32.46,32.09,22,11,31,0.00
2013-3-10,42.9,32.6,26.6,28.0,21.3,19.0,85,65,39,32.49,32.20,27,8,29,0.00
2013-3-11,38.8,34.7,32.1,28.0,19.5,11.0,82,56,33,32.27,32.19,34,14,43,0.01
2013-3-12,46.1,37.1,30.6,33.0,25.1,15.0,75,63,47,32.27,32.08,13,4,16,0.00
2013-3-13,52.3,45.9,40.7,33.0,28.9,21.0,74,53,32,32.14,32.05,11,4,18,0.00
2013-3-14,59.6,49.7,43.2,32.0,28.4,25.0,56,45,32,32.08,31.80,22,6,26,0.00
2013-3-15,51.0,43.0,40.0,34.0,28.9,-99.9,71,60,39,31.97,31.84,29,3,38,0.00
2013-3-16,42.7,38.4,32.1,31.0,28.2,24.0,93,67,51,31.97,31.62,21,7,30,0.00
2013-3-17,32.1,26.4,21.6,30.0,19.2,12.0,95,75,53,32.09,31.57,35,10,59,0.00
2013-3-18,32.9,25.0,21.7,23.0,18.7,12.0,93,78,46,32.21,32.05,24,8,32,0.00
2013-3-19,38.8,30.2,22.5,22.0,14.5,-99.9,93,56,28,32.42,32.07,22,-4,26,0.00
2013-3-20,50.8,37.0,28.9,39.0,25.3,13.0,91,65,38,32.05,31.42,57,11,63,0.03
2013-3-21,31.1,24.3,21.3,26.0,13.9,-99.9,93,74,59,32.10,31.69,25,-34,38,0.00
2013-3-22,28.7,21.9,19.7,23.0,18.0,16.0,93,85,74,32.35,32.10,16,5,23,0.03
2013-3-23,27.6,20.1,16.9,20.0,9.8,-99.9,92,76,57,32.49,32.35,16,-47,22,0.01
2013-3-24,33.7,23.8,17.1,19.0,12.6,4.0,92,67,30,32.49,32.35,10,3,12,0.00
2013-3-25,41.4,24.9,21.4,20.0,-11.0,-99.9,63,38,40,32.36,32.04,13,-220,16,0.00
2013-3-26,48.0,38.6,31.9,28.0,21.6,-99.9,67,53,38,32.04,31.87,12,-5,16,0.00
2013-3-27,50.6,40.4,33.4,33.0,26.1,22.0,74,57,41,31.98,31.87,25,5,32,0.00
2013-3-28,50.7,41.9,36.8,37.0,32.4,-99.9,84,72,55,32.02,31.92,18,-6,23,0.00
2013-3-29,48.9,41.7,37.3,39.0,34.7,30.0,91,77,53,32.16,32.03,15,4,21,0.01
2013-3-30,53.0,43.6,38.0,34.0,27.0,-99.9,80,57,36,32.26,32.05,17,-15,22,0.00
2013-3-31,57.2,47.0,36.7,31.0,28.0,25.0,65,49,33,32.06,31.82,13,5,21,0.00
2013-4-1,58.3,49.1,39.7,33.0,28.6,26.0,60,47,31,31.91,31.76,16,6,23,0.00
2013-4-2,56.5,49.1,39.8,36.0,31.5,27.0,66,51,38,31.96,31.81,24,7,28,0.00
2013-4-3,57.4,49.3,42.9,38.0,32.8,28.0,73,55,35,31.99,31.86,19,9,23,0.00
2013-4-4,56.7,49.2,42.0,40.0,34.3,29.0,79,58,45,31.90,31.58,15,5,16,0.00
2013-4-5,49.1,37.1,39.1,39.0,14.8,-99.9,83,61,51,31.82,31.60,28,-139,43,0.00
2013-4-6,45.5,37.6,34.6,40.0,28.3,-99.9,94,77,53,31.85,31.75,29,-17,40,0.07
2013-4-7,40.7,35.3,31.7,38.0,31.0,25.0,96,85,59,31.79,31.55,21,6,35,0.06
2013-4-8,34.7,27.6,21.7,27.0,9.7,-99.9,83,57,44,32.31,31.73,17,-57,28,0.00
2013-4-9,28.9,21.6,17.8,14.0,9.9,8.0,67,61,53,32.49,32.33,11,3,14,0.00
2013-4-10,48.4,41.6,37.0,40.0,31.4,-99.9,91,71,59,32.08,31.77,27,-8,34,0.04
2013-4-11,39.2,37.0,33.4,34.0,26.5,21.0,85,66,50,32.06,31.88,29,13,35,0.00
2013-4-12,47.7,37.6,30.6,26.0,17.8,-99.9,70,52,32,32.10,31.52,14,-17,23,0.00
2013-4-13,40.2,31.6,25.2,34.0,24.8,12.0,95,77,44,31.80,31.41,28,10,38,0.02
2013-4-14,34.1,27.8,23.5,27.0,23.6,16.0,94,84,63,31.97,31.81,27,6,27,0.04
2013-4-15,31.8,24.1,19.0,15.0,9.2,-99.9,69,55,41,32.24,31.97,23,-2,32,0.01
2013-4-16,31.9,24.0,18.5,17.0,10.4,7.0,66,57,47,32.47,32.26,18,6,27,0.00
2013-4-17,38.4,28.0,19.2,11.0,7.5,-1.0,59,44,24,32.49,32.39,16,6,26,0.00
2013-4-18,42.2,34.7,27.6,24.0,17.5,11.0,60,50,40,32.39,32.25,29,10,38,0.00
2013-4-19,45.2,39.0,33.4,35.0,29.9,22.0,79,70,58,32.25,31.87,21,7,28,0.01
2013-4-20,46.0,40.1,37.4,34.0,28.4,-99.9,81,66,49,32.02,31.89,30,0,43,0.00
2013-4-21,42.5,34.4,20.6,33.0,27.5,16.0,91,76,58,32.27,31.92,21,6,33,0.00
2013-4-22,33.9,25.4,17.8,19.0,14.9,11.0,83,66,40,32.50,32.28,21,8,24,0.00
2013-4-23,41.1,31.7,22.3,24.0,18.7,15.0,77,60,39,32.50,32.26,14,5,22,0.00
2013-4-24,52.7,39.9,29.1,27.0,18.9,-99.9,75,48,26,32.36,31.93,20,-15,28,0.00
2013-4-25,55.8,46.9,41.0,27.0,19.7,-99.9,50,37,26,31.94,31.76,33,-20,36,0.00
2013-4-26,62.3,52.3,42.5,31.0,28.1,26.0,54,40,28,32.08,31.95,23,9,31,0.00
2013-4-27,58.6,52.4,46.5,34.0,28.7,22.0,60,42,26,31.99,31.80,28,8,41,0.00
2013-4-28,50.6,44.3,41.0,37.0,31.1,-99.9,79,62,44,31.90,31.76,29,0,32,0.01
2013-4-29,45.2,37.8,28.9,36.0,26.1,11.0,93,65,26,31.86,31.55,45,14,56,0.00
2013-4-30,35.1,28.6,25.5,25.0,15.4,-99.9,93,63,44,32.41,31.86,24,-14,33,0.00
2013-5-1,44.1,33.2,25.3,30.0,19.5,-99.9,93,65,35,32.50,32.41,14,-17,20,0.01
2013-5-2,59.5,44.3,31.9,22.0,14.8,-99.9,59,35,15,32.50,32.21,16,-15,20,0.00
2013-5-3,51.3,46.0,42.2,38.0,28.5,15.0,81,54,24,32.21,32.08,20,7,28,0.00
2013-5-4,52.7,46.3,41.1,36.0,32.5,31.0,73,60,44,32.22,32.06,17,5,23,0.01
2013-5-5,65.3,52.9,42.6,36.0,32.0,27.0,70,48,25,32.06,31.73,14,6,26,0.00
2013-5-6,68.6,56.3,45.6,37.0,26.1,-99.9,60,36,18,31.81,31.54,22,-25,23,0.00
2013-5-7,70.0,58.7,50.0,38.0,32.5,24.0,53,38,24,31.76,31.58,23,7,33,0.00
2013-5-8,70.6,60.3,50.7,39.0,33.5,27.0,55,38,20,31.87,31.72,15,7,24,0.00
2013-5-9,71.6,60.0,50.8,42.0,35.8,-99.9,55,42,30,31.91,31.77,13,-7,18,0.02
2013-5-10,72.2,60.7,51.0,44.0,35.3,-99.9,66,42,20,32.04,31.86,27,-5,34,0.01
2013-5-11,73.3,62.7,51.8,41.0,36.8,34.0,56,40,24,32.02,31.79,21,6,26,0.00
2013-5-12,78.3,66.4,55.8,45.0,40.5,37.0,51,40,25,31.85,31.61,28,8,34,0.00
2013-5-13,74.3,59.8,46.9,49.0,44.2,31.0,82,58,30,31.77,31.36,36,11,54,0.03
2013-5-14,57.3,49.0,42.0,36.0,29.8,21.0,71,50,30,31.91,31.77,27,11,31,0.00
2013-5-15,58.7,50.0,42.3,40.0,30.8,22.0,72,49,35,31.96,31.72,18,7,21,0.00
2013-5-16,53.5,46.9,40.7,40.0,36.2,-99.9,88,69,53,31.81,31.71,22,-3,23,0.06
2013-5-17,50.6,45.7,42.9,43.0,39.4,34.0,95,80,54,31.84,31.71,13,4,15,0.08
2013-5-18,52.2,45.5,42.8,44.0,41.4,38.0,96,85,65,31.99,31.84,26,8,31,0.06
2013-5-19,50.0,45.7,42.3,41.0,38.1,36.0,80,75,68,32.13,31.98,17,11,26,0.01
2013-5-20,62.2,52.3,44.9,42.0,38.6,36.0,79,62,40,32.17,31.84,21,8,22,0.00
2013-5-21,68.0,56.3,48.1,42.0,37.2,-99.9,70,52,31,31.85,31.34,24,-3,32,0.00
2013-5-22,54.2,43.6,35.0,43.0,34.7,-99.9,90,76,59,31.88,31.35,37,16,44,0.04
2013-5-23,49.2,39.7,34.0,33.0,25.4,-99.9,90,62,34,31.96,31.84,23,-14,32,0.03
2013-5-24,54.1,44.0,38.2,35.0,31.1,27.0,77,62,39,31.95,31.77,27,8,34,0.00
2013-5-25,54.8,44.4,36.9,35.0,29.0,-99.9,80,59,41,31.96,31.86,15,-16,20,0.00
2013-5-26,61.9,47.3,40.1,44.0,31.0,-99.9,83,60,33,31.90,31.66,14,-38,21,0.00
2013-5-27,58.2,49.3,43.6,45.0,40.7,38.0,91,74,47,31.79,31.60,15,4,23,0.00
2013-5-28,52.5,46.5,42.9,47.0,42.4,40.0,96,85,72,31.67,31.61,22,6,22,0.00
2013-5-29,60.2,49.2,42.8,43.0,38.2,34.0,87,68,40,31.68,31.43,30,8,44,0.00
2013-5-30,50.9,44.1,40.4,37.0,31.8,-99.9,85,66,48,31.98,31.68,26,-8,32,0.00
2013-5-31,55.1,46.0,41.1,36.0,29.7,-99.9,72,57,42,32.18,31.98,21,-13,26,0.00
2013-6-1,62.4,52.1,40.8,35.0,30.8,26.0,68,46,27,32.20,31.83,13,4,16,0.00
2013-6-2,56.4,47.0,41.1,48.0,36.3,-99.9,92,74,38,31.82,31.63,31,-26,32,0.00
2013-6-3,54.4,46.3,41.1,45.0,41.0,39.0,94,82,64,31.98,31.80,14,5,27,0.00
2013-6-4,60.7,51.4,43.1,41.0,36.5,31.0,84,59,34,32.08,31.97,12,5,20,0.00
2013-6-5,70.4,57.7,45.1,44.0,37.5,27.0,76,50,24,32.00,31.73,19,5,25,0.00
2013-6-6,74.7,65.0,55.7,47.0,39.5,28.0,51,40,26,31.83,31.59,15,5,21,0.00
2013-6-7,70.2,64.1,59.9,48.0,43.2,39.0,59,47,39,31.64,31.49,27,7,38,0.00
2013-6-8,70.2,49.5,54.0,42.0,5.1,-99.9,51,27,24,31.73,31.58,28,-199,36,0.00
2013-6-9,73.9,62.5,54.3,41.0,28.9,-99.9,52,32,12,31.70,31.49,32,-11,34,0.00
2013-6-10,71.8,61.2,52.4,33.0,26.7,-99.9,42,28,18,31.64,31.39,25,0,33,0.00
2013-6-11,73.3,62.7,56.4,41.0,34.5,26.0,50,36,23,31.67,31.41,31,11,35,0.00
2013-6-12,61.8,53.7,47.8,45.0,37.1,-99.9,74,57,47,31.76,31.67,29,-6,36,0.00
2013-6-13,54.4,45.8,42.9,44.0,39.2,-99.9,96,80,53,31.96,31.73,30,-2,39,0.00
2013-6-14,54.6,47.4,41.3,40.0,35.9,31.0,88,66,47,32.02,31.95,20,6,29,0.22
2013-6-15,68.4,56.0,42.4,38.0,33.5,29.0,76,47,23,32.02,31.75,13,5,16,0.01
2013-6-16,75.0,63.1,51.9,42.0,34.9,30.0,55,36,23,31.86,31.68,19,6,21,0.00
2013-6-17,79.4,65.7,56.0,45.0,34.8,-99.9,60,36,19,31.75,31.49,20,-26,20,0.00
2013-6-18,73.7,65.9,58.9,49.0,43.2,35.0,62,45,29,31.50,31.29,29,11,36,0.00
2013-6-19,60.2,49.0,44.0,49.0,43.1,-99.9,96,83,61,31.66,31.31,34,2,39,0.24
2013-6-20,54.8,44.5,40.8,42.0,35.3,-99.9,96,75,51,31.98,31.67,21,-12,32,0.24
2013-6-21,58.6,48.9,39.5,43.0,38.0,34.0,88,68,42,32.00,31.87,24,7,31,0.00
2013-6-22,58.8,50.3,45.0,43.0,36.7,-99.9,81,64,48,31.93,31.81,24,-12,27,0.00
2013-6-23,67.4,54.2,44.1,43.0,33.8,-99.9,80,53,37,31.83,31.46,10,-39,14,0.00
2013-6-24,62.5,58.1,52.8,52.0,46.6,40.0,94,67,45,31.46,31.32,21,6,26,0.15
2013-6-25,64.1,53.8,50.0,52.0,44.8,-99.9,96,76,51,31.71,31.46,22,-4,29,0.04
2013-6-26,62.0,55.0,49.7,52.0,48.0,44.0,95,78,62,31.97,31.70,24,5,28,0.00
2013-6-27,77.1,55.9,51.5,54.0,32.9,-99.9,87,57,32,32.02,31.89,16,-100,21,0.00
2013-6-28,82.7,72.0,60.7,55.0,49.3,43.0,63,46,33,31.98,31.72,15,5,19,0.00
2013-6-29,80.4,71.7,62.4,57.0,52.6,47.0,71,52,34,31.78,31.56,31,8,34,0.00
2013-6-30,84.9,74.4,65.1,59.0,53.8,49.0,69,50,29,31.75,31.62,15,5,21,0.00
2013-7-1,90.4,75.5,65.6,60.0,45.4,-99.9,60,39,13,31.77,31.57,18,-28,25,0.00
2013-7-2,91.1,80.2,69.9,56.0,51.5,48.0,53,38,23,31.67,31.45,16,5,24,0.00
2013-7-3,85.9,78.2,72.0,55.0,49.8,43.0,53,38,26,31.57,31.43,22,9,29,0.00
2013-7-4,80.8,71.1,64.7,50.0,44.1,34.0,57,39,19,31.56,31.36,29,10,29,0.00
2013-7-5,74.8,63.7,60.4,47.0,31.9,-99.9,48,34,19,31.53,31.36,28,-42,36,0.01
2013-7-6,75.4,66.9,57.6,44.0,33.4,-99.9,56,32,21,31.64,31.45,18,-15,23,0.00
2013-7-7,78.7,68.8,57.7,44.0,39.4,36.0,49,35,24,31.60,31.42,19,6,26,0.00
2013-7-8,73.1,67.3,60.0,50.0,40.0,36.0,54,38,26,31.76,31.50,34,10,39,0.04
2013-7-9,78.5,68.1,56.9,46.0,41.6,30.0,60,40,21,31.91,31.71,17,7,22,0.00
2013-7-10,87.7,72.2,60.3,45.0,31.8,-99.9,42,25,14,31.76,31.35,29,-26,32,0.00
2013-7-11,77.0,69.7,60.7,45.0,40.4,30.0,56,36,19,31.51,31.37,29,10,33,0.00
2013-7-12,74.5,64.5,57.6,48.0,43.1,38.0,60,47,28,31.61,31.47,22,6,37,0.02
2013-7-13,73.0,64.4,57.2,36.0,29.9,26.0,38,28,18,31.81,31.59,28,10,31,0.00
2013-7-14,80.6,67.7,54.3,37.0,33.1,28.0,48,30,16,31.90,31.62,18,5,20,0.00
2013-7-15,82.9,71.6,59.7,39.0,34.6,30.0,41,27,18,31.68,31.48,21,7,30,0.00
2013-7-16,83.1,70.2,58.9,53.0,45.6,31.0,60,43,21,31.71,31.52,17,6,23,0.00
2013-7-17,86.0,73.2,64.4,56.0,51.9,41.0,70,49,33,31.73,31.53,26,9,35,0.00
2013-7-18,82.9,71.1,62.1,46.0,35.1,-99.9,49,30,14,31.82,31.67,20,-12,26,0.00
2013-7-19,82.7,73.0,61.1,38.0,30.4,22.0,33,22,11,31.79,31.58,30,8,35,0.00
2013-7-20,84.7,73.2,61.8,38.0,32.6,26.0,36,23,13,31.67,31.43,23,8,29,0.00
2013-7-21,86.5,74.4,62.1,34.0,26.9,10.0,31,19,6,31.56,31.38,18,7,32,0.00
2013-7-22,81.4,71.8,62.8,35.0,27.0,-99.9,29,20,13,31.59,31.46,26,-13,29,0.00
2013-7-23,86.3,72.0,60.3,35.0,26.7,-99.9,33,20,12,31.75,31.56,12,-30,18,0.00
2013-7-24,89.0,77.1,65.6,37.0,29.7,15.0,30,19,7,31.67,31.50,22,6,30,0.00
2013-7-25,86.9,76.3,66.8,44.0,37.0,26.0,44,26,13,31.71,31.55,21,8,26,0.00
2013-7-26,87.2,76.3,64.9,39.0,28.8,9.0,32,19,6,31.77,31.57,21,7,26,0.00
2013-7-27,81.9,72.6,66.3,37.0,26.4,-99.9,29,19,7,31.62,31.44,26,-2,30,0.00
2013-7-28,78.0,68.7,60.3,36.0,29.7,25.0,36,24,15,31.55,31.41,19,8,25,0.00
2013-7-29,77.2,65.9,56.6,44.0,31.3,-99.9,58,32,7,31.64,31.50,19,-6,27,0.00
2013-7-30,77.4,68.4,59.1,43.0,33.2,20.0,46,28,16,31.82,31.63,21,6,24,0.00
2013-7-31,82.1,55.5,58.6,38.0,2.9,-99.9,40,20,13,31.88,31.59,14,-219,20,0.00
2013-8-1,71.4,61.5,52.2,55.0,45.7,36.0,93,61,27,31.71,31.58,21,7,30,0.33
2013-8-2,63.1,54.8,48.7,51.0,46.6,44.0,90,74,58,31.89,31.66,20,6,24,0.01
2013-8-3,67.6,58.1,48.1,50.0,44.6,-99.9,89,64,42,31.95,31.80,20,-4,25,0.00
2013-8-4,76.7,64.4,53.6,49.0,41.9,-99.9,74,48,23,31.88,31.67,17,-6,23,0.00
2013-8-5,76.5,67.9,58.4,43.0,39.4,34.0,48,36,22,31.73,31.56,29,8,38,0.00
2013-8-6,76.7,68.5,58.1,46.0,42.1,39.0,58,40,26,31.74,31.60,13,6,19,0.00
2013-8-7,82.1,70.8,58.9,43.0,40.1,35.0,51,34,21,31.69,31.52,16,5,21,0.00
2013-8-8,79.4,70.3,60.9,47.0,37.9,27.0,47,32,15,31.68,31.52,22,8,30,0.00
2013-8-9,82.3,65.5,58.1,52.0,41.4,-99.9,73,47,26,31.71,31.50,27,-34,37,0.02
2013-8-10,83.2,67.7,55.4,51.0,45.5,37.0,76,48,20,31.74,31.56,25,5,31,0.00
2013-8-11,79.8,69.2,60.9,47.0,41.3,33.0,49,37,18,31.70,31.59,13,4,18,0.00
2013-8-12,82.1,69.8,59.6,45.0,40.9,33.0,51,36,18,31.77,31.59,14,4,28,0.00
2013-8-13,77.5,67.1,59.3,45.0,36.5,-99.9,56,35,25,31.83,31.65,18,-24,25,0.00
2013-8-14,82.7,67.1,60.5,44.0,32.0,-99.9,47,32,17,31.79,31.58,13,-40,20,0.00
2013-8-15,89.2,77.1,65.0,39.0,29.7,18.0,34,19,8,31.67,31.46,21,6,28,0.00
2013-8-16,85.5,75.4,65.7,47.0,36.5,27.0,40,25,14,31.59,31.46,24,7,33,0.00
2013-8-17,80.3,72.6,64.9,48.0,44.9,41.0,53,38,27,31.70,31.52,20,10,25,0.00
2013-8-18,81.7,71.2,63.5,49.0,42.7,35.0,53,38,19,31.73,31.59,29,11,33,0.00
2013-8-19,83.0,71.9,61.9,43.0,39.1,33.0,47,32,17,31.73,31.54,25,10,37,0.00
2013-8-20,78.2,69.5,61.3,43.0,38.8,30.0,48,34,20,31.69,31.56,25,11,32,0.00
2013-8-21,79.1,66.8,57.5,38.0,28.8,-99.9,41,27,12,31.81,31.63,21,-12,26,0.00
2013-8-22,81.9,69.7,61.0,39.0,29.8,-99.9,34,25,18,31.74,31.46,13,-30,14,0.00
2013-8-23,77.2,66.4,57.0,51.0,41.5,-99.9,74,45,29,31.60,31.38,23,-22,27,0.02
2013-8-24,80.9,68.6,58.7,48.0,41.6,-99.9,63,41,20,31.61,31.39,18,-4,22,0.00
2013-8-25,82.7,67.3,58.6,50.0,43.8,40.0,74,45,23,31.64,31.42,23,8,39,0.18
2013-8-26,76.9,66.1,57.0,54.0,46.4,37.0,78,53,29,31.73,31.56,16,6,21,0.05
2013-8-27,82.3,68.0,58.0,45.0,37.5,-99.9,52,35,19,31.71,31.49,13,-17,30,0.00
2013-8-28,75.0,67.8,59.0,51.0,47.2,43.0,73,48,41,31.69,31.55,18,5,26,0.00
2013-8-29,85.8,70.0,60.8,52.0,48.3,36.0,64,48,19,31.74,31.50,36,9,48,0.00
2013-8-30,74.1,63.5,56.4,53.0,44.7,-99.9,86,56,33,31.81,31.70,26,-13,31,0.00
2013-8-31,78.4,67.5,53.9,46.0,43.1,39.0,67,43,27,31.87,31.64,16,6,18,0.00
2013-9-1,88.6,72.8,57.8,42.0,35.5,-99.9,52,29,12,31.72,31.44,19,-5,25,0.00
2013-9-2,78.5,70.2,65.6,46.0,37.2,-99.9,43,32,18,31.58,31.46,26,-14,30,0.00
2013-9-3,74.1,54.2,63.1,56.0,18.3,-99.9,64,41,41,31.73,31.59,9,-206,14,0.00
2013-9-4,83.6,60.4,59.9,54.0,28.1,-99.9,75,44,23,31.81,31.61,15,-141,16,0.00
2013-9-5,71.8,56.9,59.3,59.0,32.8,-99.9,84,57,50,31.76,31.57,17,-131,26,0.05
2013-9-6,72.0,61.7,55.1,58.0,51.2,-99.9,93,72,48,31.77,31.66,28,-1,30,0.03
2013-9-7,75.1,64.4,55.4,49.0,45.1,41.0,69,51,30,31.83,31.62,26,12,36,0.00
2013-9-8,63.8,57.6,51.9,53.0,44.5,41.0,87,63,44,31.79,31.69,25,8,29,0.04
2013-9-9,70.2,60.3,51.1,50.0,45.9,42.0,82,60,44,31.87,31.74,15,5,19,0.00
2013-9-10,75.2,64.5,53.5,47.0,43.3,36.0,70,49,24,31.88,31.71,18,6,23,0.00
2013-9-11,80.2,68.9,57.8,45.0,41.1,32.0,58,39,17,31.92,31.75,20,6,30,0.00
2013-9-12,80.8,64.7,62.8,47.0,31.7,-99.9,49,36,25,31.82,31.55,15,-79,23,0.00
2013-9-13,79.2,62.5,64.5,48.0,27.0,-99.9,54,36,24,31.57,31.38,20,-108,26,0.00
2013-9-14,72.7,63.5,58.7,52.0,41.9,-99.9,74,50,35,31.71,31.51,25,-27,32,0.00
2013-9-15,77.8,67.1,59.2,52.0,46.6,44.0,60,49,34,31.71,31.43,20,7,25,0.02
2013-9-16,78.0,66.0,56.7,52.0,46.5,35.0,79,52,22,31.58,31.38,22,10,30,0.04
2013-9-17,62.4,55.8,48.9,49.0,45.4,42.0,88,69,49,31.52,31.30,19,6,24,0.01
2013-9-18,50.5,47.0,44.5,42.0,38.2,34.0,91,72,55,32.00,31.46,31,7,31,0.02
2013-9-19,62.0,51.2,42.4,38.0,33.9,27.0,77,55,30,32.11,31.89,10,3,18,0.00
2013-9-20,73.4,58.9,44.0,33.0,28.9,23.0,60,36,16,31.90,31.43,14,5,17,0.00
2013-9-21,63.7,60.8,56.2,38.0,30.2,23.0,51,33,23,31.43,31.30,21,10,27,0.00
2013-9-22,56.9,49.7,45.6,47.0,41.3,38.0,90,74,49,31.57,31.36,22,7,28,0.02
2013-9-23,51.7,46.8,42.3,42.0,37.2,32.0,93,71,49,31.86,31.56,20,5,31,0.00
2013-9-24,48.9,43.6,40.8,42.0,39.0,34.0,96,85,58,31.85,31.65,10,4,16,0.18
2013-9-25,41.4,38.7,36.3,40.0,37.4,35.0,97,95,90,31.75,31.63,26,12,28,0.57
2013-9-26,44.2,38.8,36.1,37.0,32.9,30.0,93,79,63,32.01,31.75,19,5,22,0.10
2013-9-27,43.9,38.5,32.8,36.0,32.0,30.0,89,78,65,32.06,31.93,12,3,17,0.00
2013-9-28,54.1,46.1,39.9,42.0,38.4,34.0,85,75,61,31.93,31.59,26,9,31,0.01
2013-9-29,49.3,42.4,37.7,43.0,37.3,31.0,94,82,64,31.68,31.37,40,11,56,0.10
2013-9-30,46.1,40.4,36.4,41.0,34.1,27.0,97,79,58,31.91,31.42,38,9,60,0.23
2013-10-1,48.0,39.1,36.3,35.0,28.4,-99.9,89,72,51,32.04,31.89,24,-24,32,0.01
2013-10-2,45.3,39.3,34.2,32.0,27.5,23.0,78,64,50,32.15,31.91,21,10,26,0.00
2013-10-3,40.2,37.1,34.2,29.0,27.2,24.0,80,68,57,32.40,31.91,23,9,27,0.00
2013-10-4,46.7,38.6,32.9,27.0,23.4,21.0,68,55,41,32.49,32.42,14,3,18,0.00
2013-10-5,55.3,41.8,32.5,28.0,18.7,-99.9,76,48,26,32.49,32.28,7,-40,10,0.00
2013-10-6,65.0,48.7,40.9,30.0,18.1,-99.9,57,36,24,32.29,31.85,13,-68,19,0.00
2013-10-7,58.8,51.0,40.4,35.0,29.7,27.0,80,45,32,31.85,31.57,31,10,38,0.00
2013-10-8,43.8,39.4,37.6,34.0,27.3,-99.9,80,66,55,31.92,31.74,22,-13,26,0.00
2013-10-9,50.0,41.9,34.7,35.0,31.7,30.0,83,68,53,32.00,31.79,15,6,21,0.00
2013-10-10,42.8,39.2,34.5,33.0,31.9,31.0,89,75,66,31.90,31.76,18,8,26,0.00
2013-10-11,45.6,40.4,37.3,31.0,26.2,23.0,73,58,44,32.06,31.89,20,10,26,0.00
2013-10-12,45.2,38.7,33.5,30.0,26.7,25.0,75,63,51,32.05,31.98,13,3,16,0.00
2013-10-13,46.1,40.3,34.7,32.0,28.8,26.0,80,64,54,32.20,32.07,21,8,25,0.00
2013-10-14,43.8,39.9,37.9,31.0,28.1,26.0,72,63,54,32.38,32.21,17,9,23,0.00
2013-10-15,48.3,39.2,30.8,30.0,26.8,25.0,81,63,44,32.45,32.19,10,3,14,0.00
2013-10-16,43.6,39.4,34.6,32.0,27.0,23.0,69,62,53,32.18,32.07,16,5,20,0.00
2013-10-17,42.5,37.0,35.1,33.0,26.8,-99.9,83,73,66,32.29,32.14,12,-29,19,0.00
2013-10-18,49.2,40.2,31.4,31.0,28.8,25.0,86,66,42,32.36,32.12,18,5,22,0.00
2013-10-19,55.6,45.7,38.7,28.0,20.3,-99.9,57,41,30,32.16,31.89,20,-26,32,0.00
2013-10-20,53.3,36.4,41.4,35.0,-0.6,-99.9,66,40,38,32.04,31.93,19,-234,25,0.00
2013-10-21,55.8,46.9,37.1,38.0,34.7,31.0,79,64,48,32.18,32.05,11,4,17,0.00
2013-10-22,59.3,49.4,39.5,37.0,35.1,32.0,80,60,38,32.17,31.99,14,3,17,0.00
2013-10-23,59.0,42.6,41.5,35.0,14.8,-99.9,67,47,41,32.08,31.96,8,-133,10,0.00
2013-10-24,58.7,49.0,40.3,33.0,29.8,26.0,63,49,36,32.13,31.96,7,2,9,0.00
2013-10-25,58.6,47.1,43.2,35.0,25.0,-99.9,59,47,38,32.18,32.05,7,-40,9,0.00
2013-10-26,57.3,47.8,40.9,33.0,29.2,24.0,63,50,31,32.27,32.01,8,2,10,0.00
2013-10-27,53.4,44.1,30.2,31.0,26.0,17.0,64,50,37,31.99,31.57,20,5,28,0.00
2013-10-28,30.1,23.3,20.2,17.0,14.0,12.0,78,68,57,32.20,31.99,21,7,33,0.00
2013-10-29,36.6,26.6,17.2,20.0,15.9,12.0,80,65,50,32.22,32.07,11,3,16,0.00
2013-10-30,42.2,35.3,29.4,24.0,21.8,18.0,68,59,48,32.09,31.98,21,6,26,0.00
2013-10-31,39.0,37.1,34.6,34.0,28.1,22.0,88,70,54,32.13,31.99,17,5,27,0.00
2013-11-1,44.9,38.2,35.1,36.0,28.0,-99.9,92,72,48,32.24,32.12,21,-16,25,0.03
2013-11-2,48.1,37.5,31.8,35.0,26.7,-99.9,93,70,48,32.10,31.53,44,-14,44,0.05
2013-11-3,33.5,29.6,26.0,24.0,21.8,19.0,88,73,59,32.03,31.71,13,4,20,0.00
2013-11-4,28.7,25.1,22.1,24.0,21.0,18.0,92,84,72,32.29,32.03,14,4,23,0.01
2013-11-5,31.5,18.8,19.3,27.0,-9.6,-99.9,86,57,59,32.35,32.24,13,-225,18,0.00
2013-11-6,37.3,33.7,29.6,30.0,26.9,24.0,94,77,62,32.40,32.27,15,5,22,0.06
2013-11-7,42.4,37.4,33.7,38.0,32.8,26.0,95,84,64,32.36,31.68,28,7,53,0.23
2013-11-8,36.1,33.7,32.1,33.0,27.9,20.0,93,80,55,32.18,31.82,27,7,36,0.02
2013-11-9,38.9,33.8,28.7,28.0,25.7,24.0,84,73,63,32.29,32.19,13,3,20,0.00
2013-11-10,48.8,42.2,33.8,37.0,32.8,26.0,78,70,60,32.20,32.08,18,5,20,0.00
2013-11-11,47.9,39.9,36.4,40.0,30.5,-99.9,92,78,66,32.38,32.14,10,-40,15,0.00
2013-11-12,51.9,44.1,34.8,39.0,32.8,28.0,90,66,40,32.38,32.26,21,7,26,0.00
2013-11-13,45.0,40.4,37.3,36.0,30.3,-99.9,79,69,53,32.25,32.16,25,0,40,0.01
2013-11-14,39.3,36.1,33.5,28.0,25.8,23.0,74,66,55,32.20,31.81,16,4,21,0.00
2013-11-15,36.6,32.8,30.0,25.0,22.3,20.0,82,66,55,31.82,31.35,20,8,27,0.00
2013-11-16,30.3,28.5,24.9,28.0,24.9,21.0,95,86,73,31.66,31.22,11,4,21,0.02
2013-11-17,33.2,28.6,24.6,26.0,23.9,22.0,94,83,64,32.04,31.66,15,5,19,0.05
2013-11-18,42.2,35.4,30.9,25.0,16.6,-99.9,65,53,45,32.05,31.73,11,-28,20,0.01
2013-11-19,44.4,39.3,36.8,36.0,32.8,24.0,94,78,57,31.72,31.52,19,8,25,0.01
2013-11-20,37.9,27.9,18.9,35.0,13.0,-99.9,93,60,47,32.40,31.60,35,-19,46,0.05
2013-11-21,25.2,19.5,13.8,10.0,5.8,0.0,68,56,44,32.50,32.41,20,6,22,0.00
2013-11-22,29.2,21.8,16.0,16.0,10.5,6.0,75,63,46,32.50,32.50,6,2,9,0.00
2013-11-23,31.4,24.1,17.5,18.0,13.8,10.0,80,65,56,32.50,32.50,8,3,9,0.00
2013-11-24,36.4,30.9,23.9,21.0,17.5,15.0,73,59,43,32.50,32.33,9,2,11,0.00
2013-11-25,43.1,36.3,30.3,23.0,19.6,17.0,61,51,39,32.49,32.37,8,2,10,0.00
2013-11-26,45.2,37.2,30.9,26.0,20.3,-99.9,73,55,44,32.44,32.16,11,-27,16,0.00
2013-11-27,41.0,32.0,33.7,29.0,6.5,-99.9,67,52,52,32.18,32.07,5,-146,9,0.00
2013-11-28,41.3,31.0,27.6,28.0,13.7,-99.9,82,62,52,32.22,32.13,6,-82,11,0.00
2013-11-29,44.1,35.4,32.0,29.0,18.4,-99.9,70,57,47,32.27,32.15,20,-37,25,0.00
2013-11-30,39.8,36.9,35.7,33.0,30.6,26.0,84,78,66,32.22,32.15,14,3,20,0.01
2013-12-1,36.4,35.3,34.2,35.0,33.2,30.0,97,92,79,32.14,31.64,21,6,24,0.13
2013-12-2,36.2,27.9,14.4,36.0,23.3,-99.9,97,86,68,31.95,31.50,44,-1,44,0.29
2013-12-3,14.0,6.9,2.0,10.0,-0.9,-6.0,82,71,61,32.50,31.96,21,6,29,0.00
2013-12-4,8.2,2.8,-0.4,-1.0,-5.9,-8.0,76,67,59,32.50,32.50,10,2,13,0.00
2013-12-5,7.2,1.1,-3.8,1.0,-7.8,-99.9,83,74,66,32.50,32.50,6,-30,11,0.00
2013-12-6,1.1,-3.1,-8.3,-8.0,-14.7,-99.9,75,65,60,32.50,32.50,9,-29,12,0.00
2013-12-7,-3.2,-7.3,-10.5,-12.0,-15.2,-19.0,75,68,63,32.50,32.50,9,2,13,0.00
2013-12-8,1.1,-3.8,-8.4,-3.0,-8.6,-14.0,87,80,72,32.50,32.50,5,1,8,0.00
2013-12-9,17.9,8.2,-2.9,13.0,4.2,-7.0,86,83,81,32.50,32.50,8,2,12,0.00
2013-12-10,21.0,19.3,17.3,16.0,14.7,13.0,90,82,76,32.50,32.48,14,5,18,0.00
2013-12-11,26.3,21.8,18.0,18.0,13.5,-99.9,88,76,69,32.50,0.00,10,-22,13,0.00
2013-12-12,35.9,29.4,25.1,23.0,19.4,17.0,75,67,52,32.50,0.00,13,5,15,0.00
2013-12-13,31.7,30.1,27.3,29.0,25.9,21.0,94,84,68,32.43,32.14,11,3,15,0.01
2013-12-14,40.0,33.5,31.2,30.0,25.7,-99.9,85,76,48,32.47,32.30,11,-8,20,0.01
2013-12-15,43.1,39.1,37.0,29.0,20.9,-99.9,64,51,41,32.31,32.15,10,-17,15,0.01
2013-12-16,43.6,35.9,35.5,27.0,13.3,-99.9,65,49,42,32.33,32.18,25,-68,30,0.00
2013-12-17,50.4,41.3,33.2,22.0,18.3,16.0,55,41,28,32.34,31.86,11,4,18,0.00
2013-12-18,43.7,31.9,28.7,26.0,3.8,-99.9,88,48,35,31.86,31.65,21,-132,28,0.00
2013-12-19,28.3,22.2,17.2,25.0,16.2,12.0,88,78,68,32.19,31.75,23,10,29,0.00
2013-12-20,23.7,19.4,16.3,21.0,14.6,11.0,91,82,65,32.17,31.73,9,2,14,0.00
2013-12-21,28.8,25.7,21.6,24.0,21.2,19.0,92,83,71,32.12,31.76,22,8,31,0.04
2013-12-22,31.9,30.4,26.7,27.0,25.1,24.0,89,80,76,32.31,32.10,22,9,26,0.04
2013-12-23,37.9,34.0,31.0,34.0,29.6,21.0,92,84,63,32.31,31.94,40,7,56,0.08
2013-12-24,31.7,29.2,25.4,23.0,19.3,17.0,77,67,57,32.50,32.18,27,12,36,0.08
2013-12-25,36.6,27.9,21.4,18.0,12.2,-99.9,76,57,36,32.50,32.48,18,-16,21,0.00
2013-12-26,44.5,39.0,32.1,28.0,23.3,15.0,59,54,45,32.49,32.26,12,4,16,0.00
2013-12-27,47.5,40.9,35.1,24.0,20.9,15.0,57,46,27,32.27,31.92,18,7,26,0.00
2013-12-28,37.3,27.5,28.8,26.0,5.1,-99.9,73,57,58,32.40,31.97,30,-125,36,0.00
2013-12-29,30.7,24.9,23.8,23.0,7.1,-99.9,76,62,56,32.45,32.28,11,-91,20,0.00
2013-12-30,37.4,33.7,30.4,32.0,26.5,22.0,90,75,68,32.33,32.06,9,2,12,0.01
2013-12-31,39.2,35.6,32.7,33.0,28.9,24.0,88,77,68,32.21,31.99,27,9,36,0.02
2014-1-1,35.8,31.9,28.7,24.0,22.0,21.0,72,67,57,32.45,32.22,22,7,27,0.02
2014-1-2,43.6,34.4,28.8,32.0,22.4,19.0,74,62,50,32.40,31.79,12,5,22,0.00